Natchitoches, LA

7:49 PM CST on February 22, 2017 (GMT -0600)
Natchitoches Regional

Weather History for KIER - September, 2013

Change the Weather History Date:

Thursday, September 12, 2013

  Actual Average Record
Temperature  
Mean Temperature 82 °F -  
Max Temperature 96 °F 88 °F 99 °F (1930)
Min Temperature 67 °F 67 °F 47 °F (1940)
Cooling Degree Days 16    
Growing Degree Days 32 (Base 50)    
Moisture  
Dew Point 67 °F    
Average Humidity 67    
Maximum Humidity 95    
Minimum Humidity 34    
Precipitation  
Precipitation 0.00 in - - ()
Sea Level Pressure  
Sea Level Pressure 30.00 in    
Wind  
Wind Speed 1 mph (East)    
Max Wind Speed 9 mph    
Max Gust Speed -    
Visibility 10 miles    
Events      
Averages and records for this station are not official NWS values.
T = Trace of Precipitation, MM = Missing Value Source: NWS Daily Summary

Daily Weather History Graph

Daily Weather History Graph

Search for Another Location

Airport or City:

Trip Planner

Search our weather history database for the weather conditions in past years. The results will help you decide how hot, cold, wet, or windy it might be!

Date:

Astronomy

Sep. 12, 2013 Rise Set
Actual Time 6:54 AM CDT 7:21 PM CDT
Civil Twilight 6:30 AM CDT 7:46 PM CDT
Nautical Twilight 6:01 AM CDT 8:14 PM CDT
Astronomical Twilight 5:32 AM CDT 8:44 PM CDT
Moon 1:59 PM CDT (9/12) No Moon Set
Length of Visible Light 13h 15m
Length of Day
12h 27m
Waxing Crescent, 50% of the Moon is Illuminated
Sep 12
Waxing Crescent
Sep 12
First Quarter
Sep 19
Full
Sep 26
Last Quarter
Oct 4
New

Hourly Weather History & Observations

Time (CDT) Temp. Heat Index Dew Point Humidity Pressure Visibility Wind Dir Wind Speed Gust Speed Precip Events Conditions
12:15 AM 72.9 °F - 68.2 °F 85% 30.05 in 10.0 mi Calm Calm - N/A   Clear
12:35 AM 72.9 °F - 68.4 °F 86% 30.04 in 10.0 mi Calm Calm - N/A   Clear
12:55 AM 72.3 °F - 68.0 °F 86% 30.05 in 10.0 mi Calm Calm - N/A   Clear
1:15 AM 71.6 °F - 67.6 °F 87% 30.04 in 10.0 mi Calm Calm - N/A   Clear
1:35 AM 72.0 °F - 67.8 °F 87% 30.05 in 10.0 mi Calm Calm - N/A   Clear
1:55 AM 70.7 °F - 67.3 °F 89% 30.05 in 10.0 mi Calm Calm - N/A   Clear
2:15 AM 70.7 °F - 67.5 °F 89% 30.05 in 10.0 mi Calm Calm - N/A   Clear
2:35 AM 70.2 °F - 67.3 °F 91% 30.04 in 10.0 mi Calm Calm - N/A   Clear
2:55 AM 70.7 °F - 67.8 °F 91% 30.04 in 10.0 mi Calm Calm - N/A   Clear
3:15 AM 70.7 °F - 67.5 °F 89% 30.04 in 10.0 mi Calm Calm - N/A   Clear
3:35 AM 70.0 °F - 67.3 °F 91% 30.04 in 10.0 mi Calm Calm - N/A   Clear
3:55 AM 68.9 °F - 66.7 °F 93% 30.04 in 10.0 mi Calm Calm - N/A   Clear
4:15 AM 68.7 °F - 66.7 °F 93% 30.04 in 10.0 mi Calm Calm - N/A   Clear
4:35 AM 68.9 °F - 66.9 °F 93% 30.04 in 10.0 mi Calm Calm - N/A   Clear
4:55 AM 68.7 °F - 66.7 °F 93% 30.04 in 10.0 mi Calm Calm - N/A   Clear
5:15 AM 68.2 °F - 66.4 °F 94% 30.04 in 7.0 mi Calm Calm - N/A   Clear
5:35 AM 68.0 °F - 66.2 °F 94% 30.05 in 10.0 mi Calm Calm - N/A   Clear
5:55 AM 68.0 °F - 65.8 °F 93% 30.05 in 10.0 mi Calm Calm - N/A   Clear
6:15 AM 67.6 °F - 65.7 °F 93% 30.05 in 10.0 mi Calm Calm - N/A   Clear
6:35 AM 67.5 °F - 65.8 °F 95% 30.06 in 7.0 mi Calm Calm - N/A   Clear
6:55 AM 67.5 °F - 65.7 °F 94% 30.06 in 10.0 mi Calm Calm - N/A   Clear
7:15 AM 67.3 °F - 65.5 °F 94% 30.07 in 7.0 mi Calm Calm - N/A   Clear
7:35 AM 68.5 °F - 66.6 °F 93% 30.07 in 10.0 mi Calm Calm - N/A   Clear
7:55 AM 71.1 °F - 67.3 °F 88% 30.07 in 7.0 mi Calm Calm - N/A   Clear
8:15 AM 73.2 °F - 68.4 °F 85% 30.08 in 10.0 mi Calm Calm - N/A   Clear
8:35 AM 76.1 °F - 69.1 °F 79% 30.08 in 10.0 mi Calm Calm - N/A   Clear
8:55 AM 78.6 °F - 70.9 °F 77% 30.08 in 10.0 mi Calm Calm - N/A   Clear
9:15 AM 81.5 °F 85.7 °F 71.4 °F 71% 30.07 in 10.0 mi Calm Calm - N/A   Clear
9:35 AM 84.4 °F 90.0 °F 72.0 °F 66% 30.07 in 10.0 mi Calm Calm - N/A   Clear
9:55 AM 86.5 °F 92.9 °F 72.3 °F 62% 30.07 in 10.0 mi Calm Calm - N/A   Clear
10:15 AM 87.4 °F 94.0 °F 71.8 °F 60% 30.07 in 10.0 mi Calm Calm - N/A   Clear
10:35 AM 88.0 °F 93.4 °F 70.5 °F 56% 30.07 in 10.0 mi North 5.8 mph - N/A   Clear
10:55 AM 89.4 °F 94.4 °F 69.8 °F 52% 30.07 in 10.0 mi West 3.5 mph - N/A   Clear
11:15 AM 90.0 °F 95.9 °F 70.9 °F 53% 30.07 in 10.0 mi North 6.9 mph - N/A   Scattered Clouds
11:35 AM 90.7 °F 97.4 °F 71.2 °F 53% 30.06 in 10.0 mi Calm Calm - N/A   Scattered Clouds
11:55 AM 89.4 °F 94.0 °F 69.1 °F 51% 30.06 in 10.0 mi Calm Calm - N/A   Clear
12:15 PM 92.5 °F 98.4 °F 70.0 °F 48% 30.05 in 10.0 mi NNW 4.6 mph - N/A   Mostly Cloudy
12:35 PM 92.5 °F 97.4 °F 69.3 °F 46% 30.05 in 10.0 mi NE 5.8 mph - N/A   Mostly Cloudy
12:55 PM 92.7 °F 96.7 °F 67.8 °F 44% 30.04 in 10.0 mi Calm Calm - N/A   Scattered Clouds
1:15 PM 93.7 °F 98.2 °F 67.8 °F 43% 30.03 in 10.0 mi North 4.6 mph - N/A   Clear
1:35 PM 94.6 °F 98.9 °F 67.8 °F 41% 30.02 in 10.0 mi ENE 4.6 mph - N/A   Clear
1:55 PM 94.1 °F 96.4 °F 64.9 °F 38% 30.00 in 10.0 mi SSE 4.6 mph - N/A   Clear
2:15 PM 95.0 °F 97.0 °F 64.2 °F 36% 29.99 in 10.0 mi ENE 5.8 mph - N/A   Clear
2:35 PM 95.0 °F 97.0 °F 64.0 °F 36% 29.98 in 10.0 mi East 5.8 mph - N/A   Clear
2:55 PM 95.4 °F 97.1 °F 64.0 °F 35% 29.97 in 10.0 mi ENE 5.8 mph - N/A   Clear
3:15 PM 95.9 °F 98.5 °F 64.8 °F 36% 29.96 in 10.0 mi SSE 3.5 mph - N/A   Clear
3:35 PM 95.9 °F 98.0 °F 64.2 °F 35% 29.95 in 10.0 mi Calm Calm - N/A   Scattered Clouds
3:55 PM 95.9 °F 98.5 °F 64.8 °F 36% 29.95 in 10.0 mi Calm Calm - N/A   Scattered Clouds
4:15 PM 96.1 °F 98.8 °F 64.8 °F 36% 29.93 in 10.0 mi SE 4.6 mph - N/A   Clear
4:35 PM 96.1 °F 97.8 °F 63.5 °F 34% 29.93 in 10.0 mi Calm Calm - N/A   Clear
4:55 PM 96.1 °F 98.3 °F 64.2 °F 35% 29.92 in 10.0 mi SE 4.6 mph - N/A   Clear
5:15 PM 95.9 °F 97.5 °F 63.5 °F 34% 29.91 in 10.0 mi Calm Calm - N/A   Clear
5:35 PM 95.7 °F 97.7 °F 63.9 °F 35% 29.91 in 10.0 mi ESE 9.2 mph - N/A   Clear
5:55 PM 94.8 °F 96.7 °F 64.0 °F 36% 29.91 in 10.0 mi South 3.5 mph - N/A   Clear
6:15 PM 94.1 °F 95.9 °F 64.2 °F 37% 29.91 in 10.0 mi ESE 5.8 mph - N/A   Clear
6:35 PM 93.2 °F 95.3 °F 64.6 °F 39% 29.91 in 10.0 mi Calm Calm - N/A   Clear
6:55 PM 91.4 °F 92.8 °F 64.2 °F 40% 29.91 in 10.0 mi ESE 3.5 mph - N/A   Clear
7:15 PM 88.7 °F 91.1 °F 66.0 °F 47% 29.92 in 10.0 mi Calm Calm - N/A   Clear
7:35 PM 84.7 °F 87.1 °F 66.6 °F 54% 29.92 in 10.0 mi Calm Calm - N/A   Clear
7:55 PM 82.0 °F 84.5 °F 67.1 °F 60% 29.93 in 10.0 mi Calm Calm - N/A   Scattered Clouds
8:15 PM 79.7 °F - 67.5 °F 66% 29.93 in 10.0 mi Calm Calm - N/A   Clear
8:35 PM 80.1 °F 82.4 °F 67.5 °F 65% 29.93 in 10.0 mi Calm Calm - N/A   Clear
8:55 PM 79.0 °F - 67.6 °F 68% 29.94 in 10.0 mi Calm Calm - N/A   Clear
9:15 PM 77.9 °F - 68.0 °F 71% 29.94 in 10.0 mi Calm Calm - N/A   Clear
9:35 PM 77.2 °F - 68.0 °F 73% 29.94 in 10.0 mi Calm Calm - N/A   Clear
9:55 PM 76.3 °F - 67.5 °F 74% 29.95 in 10.0 mi Calm Calm - N/A   Clear
10:15 PM 75.9 °F - 67.6 °F 75% 29.94 in 10.0 mi Calm Calm - N/A   Clear
10:35 PM 75.0 °F - 68.0 °F 79% 29.94 in 10.0 mi Calm Calm - N/A   Clear
10:55 PM 74.5 °F - 68.0 °F 80% 29.95 in 10.0 mi Calm Calm - N/A   Clear
11:15 PM 73.8 °F - 67.8 °F 82% 29.94 in 10.0 mi Calm Calm - N/A   Clear
11:35 PM 73.0 °F - 67.5 °F 83% 29.94 in 10.0 mi Calm Calm - N/A   Clear
11:55 PM 73.4 °F - 67.3 °F 81% 29.94 in 10.0 mi Calm Calm - N/A   Clear